{"data":{"norad_id":62508,"epoch":"2026-09-21T01:33:28.984320Z","epoch_age_seconds":125656,"freshness":"FRESH","line1":"1 62508U 25003X   26264.06491880  .00012232  00000+0  45311-3 0  9993","line2":"2 62508  43.0006 265.4226 0001281 260.0223 100.0484 15.27593454 96434","mean_motion":15.27593454,"eccentricity":0.0001281,"inclination_deg":43.0006,"raan_deg":265.4226,"arg_perigee_deg":260.0223,"mean_anomaly_deg":100.0484,"bstar":0.00045311,"rev_number":9643,"period_min":94.265918476501,"perigee_km":482.12989744099,"apogee_km":483.88772299757,"semimajor_km":6861.1458102193,"source":"CELESTRAK","updated_at":"2026-09-22T09:00:49.620599Z"}}